Time,TemperatureF,DewpointF,PressureIn,WindDirection,WindDirectionDegrees,WindSpeedMPH,WindSpeedGustMPH,Humidity,HourlyPrecipIn,Conditions,Clouds,dailyrainin,SoftwareType,DateUTC
2013-04-19 00:01:00,63.2,61.2,29.87,WSW,252,0.0,3.0,93,0.03,,SKC,0.00,VWS V14.01,2013-04-19 04:01:00,
2013-04-19 00:06:00,63.2,61.2,29.87,SE,124,0.0,1.0,93,0.03,,SKC,0.00,VWS V14.01,2013-04-19 04:06:00,
2013-04-19 00:11:00,63.2,61.2,29.87,ESE,122,0.0,3.0,93,0.03,,SKC,0.00,VWS V14.01,2013-04-19 04:11:00,
2013-04-19 00:16:00,63.2,61.2,29.86,ESE,122,2.0,3.0,93,0.03,,SKC,0.00,VWS V14.01,2013-04-19 04:16:00,
2013-04-19 00:21:00,63.4,61.0,29.86,South,179,0.0,0.0,92,0.03,,SKC,0.00,VWS V14.01,2013-04-19 04:21:00,
2013-04-19 00:26:00,63.4,61.0,29.86,SE,125,3.0,6.0,92,0.03,,SKC,0.00,VWS V14.01,2013-04-19 04:26:00,
2013-04-19 00:31:00,63.5,60.8,29.86,SE,127,0.0,0.0,91,0.03,,SKC,0.00,VWS V14.01,2013-04-19 04:31:00,
2013-04-19 00:36:00,63.5,60.8,29.86,ESE,120,0.0,2.0,91,0.03,,SKC,0.00,VWS V14.01,2013-04-19 04:36:00,
2013-04-19 00:41:00,63.5,60.8,29.86,SE,130,4.0,4.0,91,0.03,,SKC,0.00,VWS V14.01,2013-04-19 04:41:00,
2013-04-19 00:46:00,63.5,60.8,29.84,SE,130,2.0,4.0,91,0.02,,SKC,0.00,VWS V14.01,2013-04-19 04:46:00,
2013-04-19 00:51:00,63.5,60.5,29.84,SE,131,3.0,3.0,90,0.01,,SKC,0.00,VWS V14.01,2013-04-19 04:51:00,
2013-04-19 00:56:00,63.7,60.4,29.84,SE,126,4.0,5.0,89,0.01,,SKC,0.00,VWS V14.01,2013-04-19 04:56:00,
2013-04-19 01:01:00,63.7,60.4,29.83,ESE,122,4.0,6.0,89,0.00,,SKC,0.00,VWS V14.01,2013-04-19 05:01:00,
2013-04-19 01:06:00,63.7,60.4,29.83,SE,128,4.0,6.0,89,0.00,,SKC,0.00,VWS V14.01,2013-04-19 05:06:00,
2013-04-19 01:11:00,63.9,60.0,29.83,SE,126,4.0,7.0,87,0.00,,SKC,0.00,VWS V14.01,2013-04-19 05:11:00,
2013-04-19 01:16:00,64.0,60.1,29.83,SE,131,4.0,6.0,87,0.00,,SKC,0.00,VWS V14.01,2013-04-19 05:16:00,
2013-04-19 01:21:00,64.0,59.7,29.83,SE,129,2.0,7.0,86,0.00,,SKC,0.00,VWS V14.01,2013-04-19 05:21:00,
2013-04-19 01:26:00,64.0,59.7,29.83,SE,127,9.0,9.0,86,0.00,,SKC,0.00,VWS V14.01,2013-04-19 05:26:00,
2013-04-19 01:31:00,64.0,59.7,29.83,SE,124,0.0,4.0,86,0.00,,SKC,0.00,VWS V14.01,2013-04-19 05:31:00,
2013-04-19 01:36:00,64.0,59.7,29.83,ESE,120,3.0,6.0,86,0.00,,SKC,0.00,VWS V14.01,2013-04-19 05:36:00,
2013-04-19 01:41:00,64.2,59.6,29.83,ESE,122,2.0,10.0,85,0.00,,SKC,0.00,VWS V14.01,2013-04-19 05:41:00,
2013-04-19 01:46:00,64.0,59.4,29.82,ESE,120,4.0,7.0,85,0.00,,SKC,0.00,VWS V14.01,2013-04-19 05:46:00,
2013-04-19 01:51:00,64.0,59.4,29.82,SE,136,6.0,7.0,85,0.00,,SKC,0.00,VWS V14.01,2013-04-19 05:51:00,
2013-04-19 01:56:00,64.2,59.6,29.82,NE,40,3.0,5.0,85,0.00,,SKC,0.00,VWS V14.01,2013-04-19 05:56:00,
2013-04-19 02:01:00,64.0,59.4,29.81,SE,132,2.0,6.0,85,0.00,,SKC,0.00,VWS V14.01,2013-04-19 06:01:00,
2013-04-19 02:06:00,63.9,59.6,29.81,SE,134,2.0,5.0,86,0.00,,SKC,0.00,VWS V14.01,2013-04-19 06:06:00,
2013-04-19 02:11:00,63.9,59.6,29.81,SSE,150,1.0,3.0,86,0.00,,SKC,0.00,VWS V14.01,2013-04-19 06:11:00,
2013-04-19 02:16:00,63.9,59.3,29.80,SSE,153,5.0,6.0,85,0.00,,SKC,0.00,VWS V14.01,2013-04-19 06:16:00,
2013-04-19 02:21:00,63.9,59.3,29.80,SE,127,4.0,5.0,85,0.00,,SKC,0.00,VWS V14.01,2013-04-19 06:21:00,
2013-04-19 02:26:00,63.9,59.3,29.80,SE,128,0.0,2.0,85,0.00,,SKC,0.00,VWS V14.01,2013-04-19 06:26:00,
2013-04-19 02:31:00,63.7,59.1,29.80,SE,127,3.0,4.0,85,0.00,,SKC,0.00,VWS V14.01,2013-04-19 06:31:00,
2013-04-19 02:36:00,63.7,59.1,29.80,ESE,122,1.0,5.0,85,0.00,,SKC,0.00,VWS V14.01,2013-04-19 06:36:00,
2013-04-19 02:41:00,63.7,59.1,29.80,SE,138,6.0,7.0,85,0.00,,SKC,0.00,VWS V14.01,2013-04-19 06:41:00,
2013-04-19 02:46:00,63.7,58.8,29.79,ESE,120,9.0,11.0,84,0.00,,SKC,0.00,VWS V14.01,2013-04-19 06:46:00,
2013-04-19 02:51:00,63.7,58.8,29.79,SE,143,3.0,9.0,84,0.00,,SKC,0.00,VWS V14.01,2013-04-19 06:51:00,
2013-04-19 02:56:00,63.7,59.1,29.79,SE,140,3.0,4.0,85,0.00,,SKC,0.00,VWS V14.01,2013-04-19 06:56:00,
2013-04-19 03:01:00,63.5,58.9,29.79,SSE,156,1.0,4.0,85,0.00,,SKC,0.00,VWS V14.01,2013-04-19 07:01:00,
2013-04-19 03:06:00,63.5,58.9,29.79,SE,134,2.0,5.0,85,0.00,,SKC,0.00,VWS V14.01,2013-04-19 07:06:00,
2013-04-19 03:11:00,63.5,58.9,29.79,East,96,4.0,9.0,85,0.00,,SKC,0.00,VWS V14.01,2013-04-19 07:11:00,
2013-04-19 03:16:00,63.5,58.9,29.77,SE,135,0.0,3.0,85,0.00,,SKC,0.00,VWS V14.01,2013-04-19 07:16:00,
2013-04-19 03:21:00,63.4,58.8,29.77,SE,139,6.0,6.0,85,0.00,,SKC,0.00,VWS V14.01,2013-04-19 07:21:00,
2013-04-19 03:26:00,63.2,59.0,29.77,SE,133,1.0,6.0,86,0.00,,SKC,0.00,VWS V14.01,2013-04-19 07:26:00,
2013-04-19 03:31:00,63.1,59.2,29.77,ESE,122,4.0,5.0,87,0.00,,SKC,0.00,VWS V14.01,2013-04-19 07:31:00,
2013-04-19 03:36:00,62.9,59.3,29.77,South,171,1.0,2.0,88,0.00,,SKC,0.00,VWS V14.01,2013-04-19 07:36:00,
2013-04-19 03:41:00,62.9,59.0,29.77,SE,126,0.0,3.0,87,0.00,,SKC,0.00,VWS V14.01,2013-04-19 07:41:00,
2013-04-19 03:46:00,62.9,59.0,29.78,ESE,122,0.0,0.0,87,0.00,,SKC,0.00,VWS V14.01,2013-04-19 07:46:00,
2013-04-19 03:51:00,63.1,59.2,29.78,SE,143,3.0,3.0,87,0.00,,SKC,0.00,VWS V14.01,2013-04-19 07:51:00,
2013-04-19 03:56:00,63.1,59.2,29.78,ESE,121,0.0,2.0,87,0.00,,SKC,0.00,VWS V14.01,2013-04-19 07:56:00,
2013-04-19 04:01:00,63.1,59.2,29.76,SE,133,1.0,1.0,87,0.00,,SKC,0.00,VWS V14.01,2013-04-19 08:01:00,
2013-04-19 04:06:00,63.1,59.2,29.76,SSE,168,2.0,4.0,87,0.00,,SKC,0.00,VWS V14.01,2013-04-19 08:06:00,
2013-04-19 04:11:00,63.1,59.2,29.76,SE,127,2.0,4.0,87,0.00,,SKC,0.00,VWS V14.01,2013-04-19 08:11:00,
2013-04-19 04:16:00,63.1,59.2,29.76,SE,139,0.0,2.0,87,0.00,,SKC,0.00,VWS V14.01,2013-04-19 08:16:00,
2013-04-19 04:21:00,63.1,59.5,29.76,SE,129,6.0,6.0,88,0.00,,SKC,0.00,VWS V14.01,2013-04-19 08:21:00,
2013-04-19 04:26:00,63.1,59.5,29.76,SE,132,0.0,1.0,88,0.00,,SKC,0.00,VWS V14.01,2013-04-19 08:26:00,
2013-04-19 04:31:00,62.9,59.3,29.75,ESE,110,2.0,6.0,88,0.00,,SKC,0.00,VWS V14.01,2013-04-19 08:31:00,
2013-04-19 04:36:00,62.9,59.3,29.75,SE,136,6.0,6.0,88,0.00,,SKC,0.00,VWS V14.01,2013-04-19 08:36:00,
2013-04-19 04:41:00,63.1,59.5,29.75,East,88,4.0,4.0,88,0.00,,SKC,0.00,VWS V14.01,2013-04-19 08:41:00,
2013-04-19 04:46:00,62.9,59.3,29.75,SE,139,3.0,3.0,88,0.00,,SKC,0.00,VWS V14.01,2013-04-19 08:46:00,
2013-04-19 04:51:00,62.9,59.3,29.75,SE,127,2.0,4.0,88,0.00,,SKC,0.00,VWS V14.01,2013-04-19 08:51:00,
2013-04-19 04:56:00,62.9,59.3,29.75,SE,137,1.0,5.0,88,0.00,,SKC,0.00,VWS V14.01,2013-04-19 08:56:00,
2013-04-19 05:01:00,62.9,59.3,29.74,SE,128,3.0,3.0,88,0.00,,SKC,0.00,VWS V14.01,2013-04-19 09:01:00,
2013-04-19 05:06:00,63.1,59.5,29.74,ESE,121,3.0,4.0,88,0.00,,SKC,0.00,VWS V14.01,2013-04-19 09:06:00,
2013-04-19 05:11:00,62.9,59.3,29.74,SE,126,1.0,4.0,88,0.00,,SKC,0.00,VWS V14.01,2013-04-19 09:11:00,
2013-04-19 05:16:00,63.1,59.5,29.73,SE,125,0.0,1.0,88,0.00,,SKC,0.00,VWS V14.01,2013-04-19 09:16:00,
2013-04-19 05:21:00,62.9,59.3,29.73,SE,129,1.0,1.0,88,0.00,,SKC,0.00,VWS V14.01,2013-04-19 09:21:00,
2013-04-19 05:26:00,63.1,59.5,29.73,ESE,122,2.0,3.0,88,0.00,,SKC,0.00,VWS V14.01,2013-04-19 09:26:00,
2013-04-19 05:31:00,63.1,59.5,29.73,SE,129,0.0,0.0,88,0.00,,SKC,0.00,VWS V14.01,2013-04-19 09:31:00,
2013-04-19 05:36:00,63.1,59.5,29.73,ESE,122,1.0,4.0,88,0.00,,SKC,0.00,VWS V14.01,2013-04-19 09:36:00,
2013-04-19 05:41:00,62.9,59.3,29.73,ESE,123,2.0,5.0,88,0.00,,SKC,0.00,VWS V14.01,2013-04-19 09:41:00,
2013-04-19 05:46:00,62.9,59.6,29.73,West,266,4.0,5.0,89,0.00,,SKC,0.00,VWS V14.01,2013-04-19 09:46:00,
2013-04-19 05:51:00,62.9,59.6,29.73,East,94,2.0,2.0,89,0.00,,SKC,0.00,VWS V14.01,2013-04-19 09:51:00,
2013-04-19 05:56:00,62.9,59.6,29.73,SSE,164,4.0,4.0,89,0.00,,SKC,0.00,VWS V14.01,2013-04-19 09:56:00,
2013-04-19 06:00:00,62.9,59.6,29.72,ESE,120,0.0,1.0,89,0.00,,SKC,0.00,VWS V14.01,2013-04-19 10:00:00,
2013-04-19 06:05:00,62.9,59.6,29.72,East,91,0.0,0.0,89,0.00,,SKC,0.00,VWS V14.01,2013-04-19 10:05:00,
2013-04-19 06:11:00,62.9,59.6,29.72,SE,127,0.0,0.0,89,0.00,,SKC,0.00,VWS V14.01,2013-04-19 10:11:00,
2013-04-19 06:15:00,62.9,59.9,29.73,SE,129,0.0,0.0,90,0.00,,SKC,0.00,VWS V14.01,2013-04-19 10:15:00,
2013-04-19 06:20:00,62.7,59.7,29.73,SE,128,0.0,1.0,90,0.00,,SKC,0.00,VWS V14.01,2013-04-19 10:20:00,
2013-04-19 06:25:00,62.7,59.7,29.73,SE,135,0.0,1.0,90,0.00,,SKC,0.00,VWS V14.01,2013-04-19 10:25:00,
2013-04-19 06:30:00,62.7,59.7,29.73,SE,134,0.0,0.0,90,0.00,,SKC,0.00,VWS V14.01,2013-04-19 10:30:00,
2013-04-19 06:35:00,62.7,59.7,29.73,SE,139,3.0,3.0,90,0.00,,SKC,0.00,VWS V14.01,2013-04-19 10:35:00,
2013-04-19 06:40:00,62.7,59.7,29.73,ESE,119,0.0,0.0,90,0.00,,SKC,0.00,VWS V14.01,2013-04-19 10:40:00,
2013-04-19 06:45:00,62.7,60.0,29.74,ESE,120,0.0,0.0,91,0.00,,SKC,0.00,VWS V14.01,2013-04-19 10:45:00,
2013-04-19 06:50:00,62.6,59.9,29.74,ESE,120,0.0,2.0,91,0.00,,SKC,0.00,VWS V14.01,2013-04-19 10:50:00,
2013-04-19 06:55:00,62.4,59.7,29.74,ESE,120,3.0,3.0,91,0.00,,SKC,0.00,VWS V14.01,2013-04-19 10:55:00,
2013-04-19 07:00:00,62.4,60.0,29.73,SSE,164,2.0,3.0,92,0.00,,SKC,0.00,VWS V14.01,2013-04-19 11:00:00,
2013-04-19 07:05:00,62.6,59.9,29.73,SE,145,0.0,1.0,91,0.00,,SKC,0.00,VWS V14.01,2013-04-19 11:05:00,
2013-04-19 07:10:00,62.6,59.9,29.73,ESE,109,0.0,0.0,91,0.00,,SKC,0.00,VWS V14.01,2013-04-19 11:10:00,
2013-04-19 07:15:00,62.7,60.0,29.73,SE,131,1.0,1.0,91,0.00,,SKC,0.00,VWS V14.01,2013-04-19 11:15:00,
2013-04-19 07:20:00,62.9,59.9,29.73,SE,137,0.0,3.0,90,0.00,,SKC,0.00,VWS V14.01,2013-04-19 11:20:00,
2013-04-19 07:25:00,62.9,59.6,29.73,ESE,121,2.0,3.0,89,0.00,,SKC,0.00,VWS V14.01,2013-04-19 11:25:00,
2013-04-19 07:30:00,63.1,59.8,29.73,ESE,115,4.0,5.0,89,0.00,,SKC,0.00,VWS V14.01,2013-04-19 11:30:00,
2013-04-19 07:35:00,63.2,59.6,29.73,SE,127,3.0,3.0,88,0.00,,SKC,0.00,VWS V14.01,2013-04-19 11:35:00,
2013-04-19 07:40:00,63.4,59.8,29.73,East,89,4.0,4.0,88,0.00,,SKC,0.00,VWS V14.01,2013-04-19 11:40:00,
2013-04-19 07:45:00,63.4,59.8,29.74,ESE,111,0.0,0.0,88,0.00,,SKC,0.00,VWS V14.01,2013-04-19 11:45:00,
2013-04-19 07:50:00,63.4,59.8,29.74,SE,126,3.0,3.0,88,0.00,,SKC,0.00,VWS V14.01,2013-04-19 11:50:00,
2013-04-19 07:55:00,63.4,60.1,29.74,East,94,6.0,6.0,89,0.00,,SKC,0.00,VWS V14.01,2013-04-19 11:55:00,
2013-04-19 08:00:00,63.2,59.9,29.74,ESE,115,3.0,5.0,89,0.00,,SKC,0.00,VWS V14.01,2013-04-19 12:00:00,
2013-04-19 08:05:00,63.4,60.1,29.74,WSW,243,5.0,5.0,89,0.00,,SKC,0.00,VWS V14.01,2013-04-19 12:05:00,
2013-04-19 08:10:00,63.4,60.1,29.74,SSW,212,3.0,9.0,89,0.00,,SKC,0.00,VWS V14.01,2013-04-19 12:10:00,
2013-04-19 08:15:00,63.5,59.9,29.75,East,101,9.0,9.0,88,0.00,,SKC,0.00,VWS V14.01,2013-04-19 12:15:00,
2013-04-19 08:20:00,63.7,60.1,29.75,ENE,73,0.0,2.0,88,0.00,,SKC,0.00,VWS V14.01,2013-04-19 12:20:00,
2013-04-19 08:25:00,63.9,60.3,29.75,SE,128,1.0,1.0,88,0.00,,SKC,0.00,VWS V14.01,2013-04-19 12:25:00,
2013-04-19 08:30:00,64.0,60.4,29.75,SE,129,2.0,4.0,88,0.00,,SKC,0.00,VWS V14.01,2013-04-19 12:30:00,
2013-04-19 08:35:00,64.0,60.1,29.75,ESE,110,3.0,4.0,87,0.00,,SKC,0.00,VWS V14.01,2013-04-19 12:35:00,
2013-04-19 08:40:00,64.2,60.3,29.75,East,99,5.0,5.0,87,0.00,,SKC,0.00,VWS V14.01,2013-04-19 12:40:00,
2013-04-19 08:45:00,64.3,60.3,29.75,WSW,257,5.0,5.0,87,0.00,,SKC,0.00,VWS V14.01,2013-04-19 12:45:00,
2013-04-19 08:50:00,64.3,60.0,29.75,NNW,327,4.0,5.0,86,0.00,,SKC,0.00,VWS V14.01,2013-04-19 12:50:00,
2013-04-19 08:55:00,64.5,60.2,29.75,North,10,4.0,4.0,86,0.00,,SKC,0.00,VWS V14.01,2013-04-19 12:55:00,
2013-04-19 09:00:00,64.7,60.4,29.74,NNW,342,4.0,4.0,86,0.00,,SKC,0.00,VWS V14.01,2013-04-19 13:00:00,
2013-04-19 09:05:00,64.7,60.4,29.74,ENE,60,2.0,3.0,86,0.00,,SKC,0.00,VWS V14.01,2013-04-19 13:05:00,
2013-04-19 09:10:00,64.7,60.4,29.74,ENE,57,1.0,2.0,86,0.00,,SKC,0.00,VWS V14.01,2013-04-19 13:10:00,
2013-04-19 09:15:00,64.8,60.5,29.72,ESE,116,7.0,7.0,86,0.00,,SKC,0.00,VWS V14.01,2013-04-19 13:15:00,
2013-04-19 09:20:00,64.8,60.2,29.72,SSE,161,3.0,4.0,85,0.00,,SKC,0.00,VWS V14.01,2013-04-19 13:20:00,
2013-04-19 09:25:00,64.8,60.5,29.72,West,259,4.0,9.0,86,0.00,,SKC,0.00,VWS V14.01,2013-04-19 13:25:00,
2013-04-19 09:30:00,65.0,60.4,29.72,SE,132,5.0,6.0,85,0.00,,SKC,0.00,VWS V14.01,2013-04-19 13:30:00,
2013-04-19 09:35:00,65.2,60.6,29.72,ENE,63,5.0,6.0,85,0.00,,SKC,0.00,VWS V14.01,2013-04-19 13:35:00,
2013-04-19 09:40:00,65.2,60.6,29.72,SE,129,7.0,7.0,85,0.00,,SKC,0.00,VWS V14.01,2013-04-19 13:40:00,
2013-04-19 09:45:00,65.0,60.4,29.72,ENE,75,4.0,7.0,85,0.00,,SKC,0.00,VWS V14.01,2013-04-19 13:45:00,
2013-04-19 09:50:00,65.0,60.7,29.72,ESE,103,7.0,7.0,86,0.00,,SKC,0.00,VWS V14.01,2013-04-19 13:50:00,
2013-04-19 09:55:00,65.0,60.7,29.72,ESE,123,0.0,1.0,86,0.00,,SKC,0.00,VWS V14.01,2013-04-19 13:55:00,
2013-04-19 10:00:00,65.2,60.9,29.72,NW,306,0.0,0.0,86,0.00,,SKC,0.00,VWS V14.01,2013-04-19 14:00:00,
2013-04-19 10:05:00,65.3,61.0,29.72,SW,226,1.0,2.0,86,0.00,,SKC,0.00,VWS V14.01,2013-04-19 14:05:00,
2013-04-19 10:10:00,65.3,60.7,29.72,ESE,115,6.0,6.0,85,0.00,,SKC,0.00,VWS V14.01,2013-04-19 14:10:00,
2013-04-19 10:15:00,65.5,60.9,29.72,SE,125,5.0,7.0,85,0.00,,SKC,0.00,VWS V14.01,2013-04-19 14:15:00,
2013-04-19 10:20:00,65.3,61.0,29.72,NW,326,3.0,3.0,86,0.00,,SKC,0.00,VWS V14.01,2013-04-19 14:20:00,
2013-04-19 10:25:00,65.3,60.7,29.72,WNW,282,3.0,3.0,85,0.00,,SKC,0.00,VWS V14.01,2013-04-19 14:25:00,
2013-04-19 10:30:00,65.3,60.7,29.72,SE,127,1.0,2.0,85,0.00,,SKC,0.00,VWS V14.01,2013-04-19 14:30:00,
2013-04-19 10:35:00,65.5,60.9,29.72,SE,136,3.0,3.0,85,0.00,,SKC,0.00,VWS V14.01,2013-04-19 14:35:00,
2013-04-19 10:40:00,65.5,60.5,29.72,ENE,75,0.0,14.0,84,0.00,,SKC,0.00,VWS V14.01,2013-04-19 14:40:00,
2013-04-19 10:45:00,65.3,61.0,29.72,NW,305,4.0,4.0,86,0.00,,SKC,0.00,VWS V14.01,2013-04-19 14:45:00,
2013-04-19 10:50:00,64.8,61.2,29.72,NE,47,5.0,5.0,88,0.00,,SKC,0.00,VWS V14.01,2013-04-19 14:50:00,
2013-04-19 10:55:00,64.7,61.4,29.72,WNW,286,0.0,0.0,89,0.00,,SKC,0.00,VWS V14.01,2013-04-19 14:55:00,
2013-04-19 11:00:00,64.5,61.5,29.72,West,272,4.0,6.0,90,0.00,,SKC,0.00,VWS V14.01,2013-04-19 15:00:00,
2013-04-19 11:05:00,64.5,61.8,29.72,WNW,283,3.0,7.0,91,0.01,,SKC,0.01,VWS V14.01,2013-04-19 15:05:00,
2013-04-19 11:10:00,64.5,61.8,29.72,South,179,4.0,19.0,91,0.01,,SKC,0.01,VWS V14.01,2013-04-19 15:10:00,
2013-04-19 11:15:00,64.5,61.5,29.71,East,83,1.0,12.0,90,0.01,,SKC,0.01,VWS V14.01,2013-04-19 15:15:00,
2013-04-19 11:20:00,64.5,61.5,29.71,SSE,148,0.0,9.0,90,0.01,,SKC,0.01,VWS V14.01,2013-04-19 15:20:00,
2013-04-19 11:25:00,64.7,61.7,29.71,North,359,3.0,7.0,90,0.01,,SKC,0.01,VWS V14.01,2013-04-19 15:25:00,
2013-04-19 11:30:00,64.8,61.5,29.71,East,101,3.0,7.0,89,0.01,,SKC,0.01,VWS V14.01,2013-04-19 15:30:00,
2013-04-19 11:35:00,65.0,61.7,29.71,ESE,117,4.0,10.0,89,0.01,,SKC,0.01,VWS V14.01,2013-04-19 15:35:00,
2013-04-19 11:40:00,65.0,61.4,29.71,ESE,102,2.0,8.0,88,0.01,,SKC,0.01,VWS V14.01,2013-04-19 15:40:00,
2013-04-19 11:45:00,65.2,61.6,29.70,SE,129,2.0,9.0,88,0.01,,SKC,0.01,VWS V14.01,2013-04-19 15:45:00,
2013-04-19 11:50:00,65.2,61.6,29.70,SE,127,4.0,12.0,88,0.01,,SKC,0.01,VWS V14.01,2013-04-19 15:50:00,
2013-04-19 11:55:00,65.2,61.6,29.70,East,84,4.0,11.0,88,0.01,,SKC,0.01,VWS V14.01,2013-04-19 15:55:00,
2013-04-19 12:00:00,65.0,61.7,29.69,West,271,5.0,9.0,89,0.01,,SKC,0.01,VWS V14.01,2013-04-19 16:00:00,
2013-04-19 12:05:00,64.8,61.5,29.69,East,96,2.0,7.0,89,0.01,,SKC,0.01,VWS V14.01,2013-04-19 16:05:00,
2013-04-19 12:10:00,64.8,61.8,29.69,West,275,1.0,17.0,90,0.00,,SKC,0.01,VWS V14.01,2013-04-19 16:10:00,
2013-04-19 12:15:00,64.5,61.8,29.68,NNE,21,2.0,6.0,91,0.01,,SKC,0.02,VWS V14.01,2013-04-19 16:15:00,
2013-04-19 12:20:00,64.5,62.1,29.68,SSW,198,1.0,5.0,92,0.01,,SKC,0.02,VWS V14.01,2013-04-19 16:20:00,
2013-04-19 12:25:00,64.3,62.2,29.68,SSE,157,3.0,7.0,93,0.01,,SKC,0.02,VWS V14.01,2013-04-19 16:25:00,
2013-04-19 12:30:00,64.3,62.2,29.67,SW,215,3.0,12.0,93,0.01,,SKC,0.02,VWS V14.01,2013-04-19 16:30:00,
2013-04-19 12:35:00,64.3,62.2,29.67,WSW,254,2.0,6.0,93,0.01,,SKC,0.02,VWS V14.01,2013-04-19 16:35:00,
2013-04-19 12:40:00,64.3,62.2,29.67,NE,46,1.0,7.0,93,0.01,,SKC,0.02,VWS V14.01,2013-04-19 16:40:00,
2013-04-19 12:45:00,64.3,62.2,29.67,NW,312,0.0,12.0,93,0.01,,SKC,0.02,VWS V14.01,2013-04-19 16:45:00,
2013-04-19 12:50:00,64.3,62.5,29.67,SW,223,0.0,7.0,94,0.01,,SKC,0.02,VWS V14.01,2013-04-19 16:50:00,
2013-04-19 12:55:00,64.2,62.4,29.67,SW,218,0.0,3.0,94,0.01,,SKC,0.02,VWS V14.01,2013-04-19 16:55:00,
2013-04-19 13:00:00,64.2,62.4,29.66,SSE,151,0.0,5.0,94,0.03,,SKC,0.04,VWS V14.01,2013-04-19 17:00:00,
2013-04-19 13:05:00,64.2,62.7,29.66,SSE,152,0.0,2.0,95,0.04,,SKC,0.05,VWS V14.01,2013-04-19 17:05:00,
2013-04-19 13:10:00,64.2,62.7,29.66,ESE,119,0.0,5.0,95,0.04,,SKC,0.05,VWS V14.01,2013-04-19 17:10:00,
2013-04-19 13:15:00,64.2,63.0,29.66,SSE,151,1.0,5.0,96,0.05,,SKC,0.06,VWS V14.01,2013-04-19 17:15:00,
2013-04-19 13:20:00,64.2,63.0,29.66,SSE,151,0.0,3.0,96,0.06,,SKC,0.08,VWS V14.01,2013-04-19 17:20:00,
2013-04-19 13:25:00,64.2,63.0,29.66,SE,141,0.0,7.0,96,0.08,,SKC,0.10,VWS V14.01,2013-04-19 17:25:00,
2013-04-19 13:30:00,64.2,63.0,29.65,SE,128,0.0,4.0,96,0.13,,SKC,0.15,VWS V14.01,2013-04-19 17:30:00,
2013-04-19 13:35:00,64.2,63.0,29.65,SE,129,2.0,4.0,96,0.19,,SKC,0.21,VWS V14.01,2013-04-19 17:35:00,
2013-04-19 13:40:00,64.0,62.8,29.65,ESE,108,3.0,5.0,96,0.22,,SKC,0.24,VWS V14.01,2013-04-19 17:40:00,
2013-04-19 13:45:00,64.0,62.8,29.64,SW,223,0.0,5.0,96,0.25,,SKC,0.27,VWS V14.01,2013-04-19 17:45:00,
2013-04-19 13:50:00,64.0,63.1,29.64,SW,229,0.0,4.0,97,0.26,,SKC,0.28,VWS V14.01,2013-04-19 17:50:00,
2013-04-19 13:55:00,64.0,63.1,29.64,SW,225,2.0,3.0,97,0.29,,SKC,0.31,VWS V14.01,2013-04-19 17:55:00,
2013-04-19 14:00:00,64.0,63.1,29.66,West,276,2.0,7.0,97,0.31,,SKC,0.33,VWS V14.01,2013-04-19 18:00:00,
2013-04-19 14:05:00,64.0,63.1,29.66,West,270,0.0,3.0,97,0.30,,SKC,0.34,VWS V14.01,2013-04-19 18:05:00,
2013-04-19 14:10:00,64.0,63.4,29.66,SSE,159,3.0,6.0,98,0.32,,SKC,0.37,VWS V14.01,2013-04-19 18:10:00,
2013-04-19 14:15:00,64.2,63.6,29.65,West,266,0.0,5.0,98,0.33,,SKC,0.38,VWS V14.01,2013-04-19 18:15:00,
2013-04-19 14:20:00,64.2,63.6,29.65,NNW,332,2.0,7.0,98,0.33,,SKC,0.39,VWS V14.01,2013-04-19 18:20:00,
2013-04-19 14:25:00,64.2,63.6,29.65,NNE,22,3.0,11.0,98,0.33,,SKC,0.41,VWS V14.01,2013-04-19 18:25:00,
2013-04-19 14:30:00,64.3,63.7,29.65,WNW,293,9.0,26.0,98,0.32,,SKC,0.42,VWS V14.01,2013-04-19 18:30:00,
2013-04-19 14:35:00,64.3,63.4,29.65,WSW,243,7.0,15.0,97,0.27,,SKC,0.42,VWS V14.01,2013-04-19 18:35:00,
2013-04-19 14:40:00,64.3,63.4,29.65,NNW,345,6.0,12.0,97,0.23,,SKC,0.44,VWS V14.01,2013-04-19 18:40:00,
2013-04-19 14:45:00,64.3,63.1,29.66,SE,134,2.0,15.0,96,0.21,,SKC,0.45,VWS V14.01,2013-04-19 18:45:00,
2013-04-19 14:50:00,64.2,63.0,29.66,East,91,4.0,11.0,96,0.20,,SKC,0.47,VWS V14.01,2013-04-19 18:50:00,
2013-04-19 14:55:00,64.3,63.1,29.66,ESE,110,4.0,11.0,96,0.21,,SKC,0.50,VWS V14.01,2013-04-19 18:55:00,
2013-04-19 15:00:00,64.3,63.1,29.66,North,359,4.0,13.0,96,0.19,,SKC,0.50,VWS V14.01,2013-04-19 19:00:00,
2013-04-19 15:05:00,64.3,63.1,29.66,ENE,65,4.0,13.0,96,0.19,,SKC,0.52,VWS V14.01,2013-04-19 19:05:00,
2013-04-19 15:10:00,64.2,63.0,29.66,WSW,257,2.0,9.0,96,0.20,,SKC,0.54,VWS V14.01,2013-04-19 19:10:00,
2013-04-19 15:15:00,64.0,62.8,29.66,West,275,6.0,7.0,96,0.18,,SKC,0.55,VWS V14.01,2013-04-19 19:15:00,
2013-04-19 15:20:00,64.2,63.0,29.66,NW,314,5.0,19.0,96,0.17,,SKC,0.55,VWS V14.01,2013-04-19 19:20:00,
2013-04-19 15:25:00,64.3,63.1,29.66,WNW,285,10.0,12.0,96,0.16,,SKC,0.55,VWS V14.01,2013-04-19 19:25:00,
2013-04-19 15:30:00,64.3,62.8,29.66,ESE,122,2.0,9.0,95,0.14,,SKC,0.55,VWS V14.01,2013-04-19 19:30:00,
2013-04-19 15:35:00,64.3,62.8,29.66,WNW,288,13.0,14.0,95,0.14,,SKC,0.56,VWS V14.01,2013-04-19 19:35:00,
2013-04-19 15:40:00,64.3,62.8,29.66,WNW,284,6.0,11.0,95,0.14,,SKC,0.56,VWS V14.01,2013-04-19 19:40:00,
2013-04-19 15:45:00,64.3,62.8,29.66,West,263,6.0,13.0,95,0.13,,SKC,0.57,VWS V14.01,2013-04-19 19:45:00,
2013-04-19 15:50:00,64.2,62.7,29.66,WNW,296,5.0,13.0,95,0.12,,SKC,0.57,VWS V14.01,2013-04-19 19:50:00,
2013-04-19 15:55:00,64.2,62.7,29.66,WNW,301,2.0,8.0,95,0.11,,SKC,0.58,VWS V14.01,2013-04-19 19:55:00,
2013-04-19 16:00:00,64.2,63.0,29.66,WNW,300,6.0,12.0,96,0.08,,SKC,0.58,VWS V14.01,2013-04-19 20:00:00,
2013-04-19 16:05:00,64.2,63.0,29.66,WSW,258,0.0,10.0,96,0.09,,SKC,0.59,VWS V14.01,2013-04-19 20:05:00,
2013-04-19 16:10:00,64.2,63.0,29.66,West,259,6.0,7.0,96,0.08,,SKC,0.60,VWS V14.01,2013-04-19 20:10:00,
2013-04-19 16:15:00,64.2,63.0,29.66,West,267,0.0,11.0,96,0.07,,SKC,0.61,VWS V14.01,2013-04-19 20:15:00,
2013-04-19 16:20:00,64.2,63.0,29.66,West,266,0.0,5.0,96,0.10,,SKC,0.65,VWS V14.01,2013-04-19 20:20:00,
2013-04-19 16:25:00,63.9,62.7,29.66,WSW,248,0.0,4.0,96,0.11,,SKC,0.66,VWS V14.01,2013-04-19 20:25:00,
2013-04-19 16:30:00,63.9,62.7,29.65,SSW,196,0.0,5.0,96,0.15,,SKC,0.70,VWS V14.01,2013-04-19 20:30:00,
2013-04-19 16:35:00,63.7,62.5,29.65,ESE,121,1.0,5.0,96,0.20,,SKC,0.75,VWS V14.01,2013-04-19 20:35:00,
2013-04-19 16:40:00,63.7,62.8,29.65,West,262,0.0,7.0,97,0.19,,SKC,0.75,VWS V14.01,2013-04-19 20:40:00,
2013-04-19 16:45:00,63.9,63.0,29.63,WNW,282,0.0,4.0,97,0.19,,SKC,0.75,VWS V14.01,2013-04-19 20:45:00,
2013-04-19 16:50:00,63.9,63.0,29.63,West,276,0.0,6.0,97,0.18,,SKC,0.75,VWS V14.01,2013-04-19 20:50:00,
2013-04-19 16:55:00,63.7,62.8,29.63,WNW,283,1.0,9.0,97,0.18,,SKC,0.75,VWS V14.01,2013-04-19 20:55:00,
2013-04-19 17:00:00,63.7,62.8,29.64,West,277,2.0,7.0,97,0.18,,SKC,0.76,VWS V14.01,2013-04-19 21:00:00,
2013-04-19 17:05:00,63.5,62.9,29.64,SW,221,2.0,6.0,98,0.20,,SKC,0.78,VWS V14.01,2013-04-19 21:05:00,
2013-04-19 17:10:00,63.5,62.9,29.64,South,184,0.0,3.0,98,0.19,,SKC,0.78,VWS V14.01,2013-04-19 21:10:00,
2013-04-19 17:15:00,63.5,62.9,29.64,ENE,71,3.0,6.0,98,0.19,,SKC,0.79,VWS V14.01,2013-04-19 21:15:00,
2013-04-19 17:20:00,63.4,62.8,29.64,West,264,0.0,12.0,98,0.18,,SKC,0.79,VWS V14.01,2013-04-19 21:20:00,
2013-04-19 17:25:00,63.4,62.8,29.64,SE,142,3.0,9.0,98,0.14,,SKC,0.79,VWS V14.01,2013-04-19 21:25:00,
2013-04-19 17:30:00,63.4,62.8,29.64,WSW,247,0.0,6.0,98,0.13,,SKC,0.79,VWS V14.01,2013-04-19 21:30:00,
2013-04-19 17:35:00,63.4,62.5,29.64,SW,214,2.0,9.0,97,0.09,,SKC,0.79,VWS V14.01,2013-04-19 21:35:00,
2013-04-19 17:40:00,63.2,62.3,29.64,ESE,115,5.0,7.0,97,0.04,,SKC,0.79,VWS V14.01,2013-04-19 21:40:00,
2013-04-19 17:45:00,63.1,62.2,29.63,West,264,3.0,11.0,97,0.04,,SKC,0.79,VWS V14.01,2013-04-19 21:45:00,
2013-04-19 17:50:00,62.9,62.0,29.63,WSW,250,0.0,7.0,97,0.04,,SKC,0.79,VWS V14.01,2013-04-19 21:50:00,
2013-04-19 17:55:00,62.9,62.0,29.63,West,273,2.0,11.0,97,0.04,,SKC,0.79,VWS V14.01,2013-04-19 21:55:00,
2013-04-19 18:00:00,62.9,62.0,29.64,West,278,0.0,9.0,97,0.04,,SKC,0.79,VWS V14.01,2013-04-19 22:00:00,
2013-04-19 18:05:00,63.1,62.2,29.64,West,278,0.0,0.0,97,0.03,,SKC,0.79,VWS V14.01,2013-04-19 22:05:00,
2013-04-19 18:10:00,62.9,62.0,29.64,West,278,0.0,2.0,97,0.01,,SKC,0.79,VWS V14.01,2013-04-19 22:10:00,
2013-04-19 18:15:00,63.1,62.2,29.63,West,278,3.0,4.0,97,0.01,,SKC,0.79,VWS V14.01,2013-04-19 22:15:00,
2013-04-19 18:20:00,62.9,62.0,29.63,West,278,0.0,1.0,97,0.00,,SKC,0.79,VWS V14.01,2013-04-19 22:20:00,
2013-04-19 18:25:00,62.7,61.8,29.63,WNW,295,4.0,9.0,97,0.00,,SKC,0.79,VWS V14.01,2013-04-19 22:25:00,
2013-04-19 18:30:00,61.0,59.3,29.63,NW,308,4.0,8.0,94,0.00,,SKC,0.79,VWS V14.01,2013-04-19 22:30:00,
2013-04-19 18:35:00,59.2,56.6,29.63,WNW,295,5.0,10.0,91,0.00,,SKC,0.79,VWS V14.01,2013-04-19 22:35:00,
2013-04-19 18:40:00,58.1,55.5,29.63,West,276,5.0,10.0,91,0.00,,SKC,0.79,VWS V14.01,2013-04-19 22:40:00,
2013-04-19 18:45:00,57.2,54.3,29.65,NW,316,7.0,12.0,90,0.00,,SKC,0.79,VWS V14.01,2013-04-19 22:45:00,
2013-04-19 18:50:00,56.3,52.2,29.65,WNW,290,9.0,17.0,86,0.00,,SKC,0.79,VWS V14.01,2013-04-19 22:50:00,
2013-04-19 18:55:00,56.3,52.5,29.65,WNW,294,2.0,14.0,87,0.00,,SKC,0.79,VWS V14.01,2013-04-19 22:55:00,
2013-04-19 19:00:00,56.2,52.7,29.65,South,177,0.0,5.0,88,0.00,,SKC,0.79,VWS V14.01,2013-04-19 23:00:00,
2013-04-19 19:05:00,55.9,51.8,29.65,SE,129,3.0,5.0,86,0.00,,SKC,0.79,VWS V14.01,2013-04-19 23:05:00,
2013-04-19 19:10:00,55.6,52.1,29.65,SE,124,0.0,7.0,88,0.00,,SKC,0.79,VWS V14.01,2013-04-19 23:10:00,
2013-04-19 19:15:00,55.4,52.2,29.68,SE,124,0.0,4.0,89,0.00,,SKC,0.79,VWS V14.01,2013-04-19 23:15:00,
2013-04-19 19:20:00,55.4,52.8,29.68,SE,124,0.0,2.0,91,0.00,,SKC,0.79,VWS V14.01,2013-04-19 23:20:00,
2013-04-19 19:25:00,55.1,52.5,29.68,SE,124,1.0,3.0,91,0.00,,SKC,0.79,VWS V14.01,2013-04-19 23:25:00,
2013-04-19 19:30:00,54.5,51.0,29.68,West,270,0.0,12.0,88,0.00,,SKC,0.79,VWS V14.01,2013-04-19 23:30:00,
2013-04-19 19:35:00,54.5,50.1,29.68,NW,311,3.0,7.0,85,0.00,,SKC,0.79,VWS V14.01,2013-04-19 23:35:00,
2013-04-19 19:40:00,54.7,49.7,29.68,NW,311,0.0,2.0,83,0.00,,SKC,0.79,VWS V14.01,2013-04-19 23:40:00,
2013-04-19 19:45:00,54.7,50.9,29.66,NW,311,0.0,1.0,87,0.00,,SKC,0.79,VWS V14.01,2013-04-19 23:45:00,
2013-04-19 19:50:00,54.4,51.2,29.66,NW,311,3.0,4.0,89,0.00,,SKC,0.79,VWS V14.01,2013-04-19 23:50:00,
2013-04-19 19:55:00,54.2,48.8,29.66,WNW,300,2.0,14.0,82,0.00,,SKC,0.79,VWS V14.01,2013-04-19 23:55:00,
2013-04-19 20:00:00,54.2,48.8,29.68,West,276,3.0,14.0,82,0.00,,SKC,0.79,VWS V14.01,2013-04-20 00:00:00,
2013-04-19 20:05:00,53.8,48.1,29.68,NW,310,6.0,13.0,81,0.00,,SKC,0.79,VWS V14.01,2013-04-20 00:05:00,
2013-04-19 20:10:00,53.5,46.8,29.68,West,262,0.0,14.0,78,0.00,,SKC,0.79,VWS V14.01,2013-04-20 00:10:00,
2013-04-19 20:15:00,53.3,47.0,29.69,NW,304,10.0,11.0,79,0.00,,SKC,0.79,VWS V14.01,2013-04-20 00:15:00,
2013-04-19 20:20:00,53.3,45.6,29.69,WNW,295,9.0,13.0,75,0.00,,SKC,0.79,VWS V14.01,2013-04-20 00:20:00,
2013-04-19 20:25:00,53.2,45.5,29.69,WNW,283,12.0,12.0,75,0.00,,SKC,0.79,VWS V14.01,2013-04-20 00:25:00,
2013-04-19 20:30:00,53.1,45.0,29.70,West,275,4.0,13.0,74,0.00,,SKC,0.79,VWS V14.01,2013-04-20 00:30:00,
2013-04-19 20:35:00,53.1,44.0,29.70,WNW,292,4.0,19.0,71,0.00,,SKC,0.79,VWS V14.01,2013-04-20 00:35:00,
2013-04-19 20:40:00,53.1,44.3,29.70,WNW,293,4.0,7.0,72,0.00,,SKC,0.79,VWS V14.01,2013-04-20 00:40:00,
2013-04-19 20:45:00,52.8,44.8,29.72,NW,326,3.0,10.0,74,0.00,,SKC,0.79,VWS V14.01,2013-04-20 00:45:00,
2013-04-19 20:50:00,52.9,44.5,29.72,NNW,330,14.0,14.0,73,0.00,,SKC,0.79,VWS V14.01,2013-04-20 00:50:00,
2013-04-19 20:55:00,52.8,44.0,29.72,West,263,3.0,11.0,72,0.00,,SKC,0.79,VWS V14.01,2013-04-20 00:55:00,
2013-04-19 21:00:00,52.3,43.5,29.72,West,269,7.0,15.0,72,0.00,,SKC,0.79,VWS V14.01,2013-04-20 01:00:00,
2013-04-19 21:05:00,52.0,43.3,29.72,West,272,10.0,14.0,72,0.00,,SKC,0.79,VWS V14.01,2013-04-20 01:05:00,
2013-04-19 21:10:00,51.7,42.6,29.72,West,276,5.0,18.0,71,0.00,,SKC,0.79,VWS V14.01,2013-04-20 01:10:00,
2013-04-19 21:15:00,51.6,42.2,29.74,WNW,287,5.0,15.0,70,0.00,,SKC,0.79,VWS V14.01,2013-04-20 01:15:00,
2013-04-19 21:20:00,51.6,41.8,29.74,NNW,347,5.0,12.0,69,0.00,,SKC,0.79,VWS V14.01,2013-04-20 01:20:00,
2013-04-19 21:25:00,51.3,41.9,29.74,West,259,0.0,17.0,70,0.00,,SKC,0.79,VWS V14.01,2013-04-20 01:25:00,
2013-04-19 21:30:00,51.1,40.9,29.75,NW,323,5.0,13.0,68,0.00,,SKC,0.79,VWS V14.01,2013-04-20 01:30:00,
2013-04-19 21:35:00,51.1,41.3,29.75,West,262,3.0,12.0,69,0.00,,SKC,0.79,VWS V14.01,2013-04-20 01:35:00,
2013-04-19 21:40:00,51.0,41.2,29.75,NNW,335,8.0,11.0,69,0.00,,SKC,0.79,VWS V14.01,2013-04-20 01:40:00,
2013-04-19 21:45:00,50.8,40.6,29.77,NW,313,10.0,18.0,68,0.00,,SKC,0.79,VWS V14.01,2013-04-20 01:45:00,
2013-04-19 21:50:00,50.7,40.9,29.77,NW,311,3.0,15.0,69,0.00,,SKC,0.79,VWS V14.01,2013-04-20 01:50:00,
2013-04-19 21:55:00,50.4,40.6,29.77,WNW,297,5.0,19.0,69,0.00,,SKC,0.79,VWS V14.01,2013-04-20 01:55:00,
2013-04-19 22:00:00,50.2,40.1,29.78,NNW,334,4.0,14.0,68,0.00,,SKC,0.79,VWS V14.01,2013-04-20 02:00:00,
2013-04-19 22:05:00,50.1,40.0,29.78,NW,307,6.0,16.0,68,0.00,,SKC,0.79,VWS V14.01,2013-04-20 02:05:00,
2013-04-19 22:10:00,49.8,39.3,29.78,WNW,291,10.0,18.0,67,0.00,,SKC,0.79,VWS V14.01,2013-04-20 02:10:00,
2013-04-19 22:15:00,49.6,39.1,29.79,WNW,283,22.0,22.0,67,0.00,,SKC,0.79,VWS V14.01,2013-04-20 02:15:00,
2013-04-19 22:20:00,49.4,38.1,29.79,WSW,252,10.0,13.0,65,0.00,,SKC,0.79,VWS V14.01,2013-04-20 02:20:00,
2013-04-19 22:25:00,49.1,37.9,29.79,WSW,255,3.0,17.0,65,0.00,,SKC,0.79,VWS V14.01,2013-04-20 02:25:00,
2013-04-19 22:30:00,48.9,37.3,29.81,WNW,301,0.0,7.0,64,0.00,,SKC,0.79,VWS V14.01,2013-04-20 02:30:00,
2013-04-19 22:35:00,48.8,38.3,29.81,WNW,289,13.0,16.0,67,0.00,,SKC,0.79,VWS V14.01,2013-04-20 02:35:00,
2013-04-19 22:40:00,48.5,37.7,29.81,West,261,18.0,18.0,66,0.00,,SKC,0.79,VWS V14.01,2013-04-20 02:40:00,
2013-04-19 22:45:00,48.6,37.0,29.82,West,280,0.0,14.0,64,0.00,,SKC,0.79,VWS V14.01,2013-04-20 02:45:00,
2013-04-19 22:50:00,48.6,37.0,29.82,West,280,3.0,3.0,64,0.00,,SKC,0.79,VWS V14.01,2013-04-20 02:50:00,
2013-04-19 22:55:00,48.5,37.3,29.82,West,264,5.0,10.0,65,0.00,,SKC,0.79,VWS V14.01,2013-04-20 02:55:00,
2013-04-19 23:00:00,48.5,37.3,29.82,WNW,294,6.0,9.0,65,0.00,,SKC,0.79,VWS V14.01,2013-04-20 03:00:00,
2013-04-19 23:05:00,48.3,37.1,29.82,West,271,2.0,10.0,65,0.00,,SKC,0.79,VWS V14.01,2013-04-20 03:05:00,
2013-04-19 23:10:00,48.0,39.4,29.82,North,351,1.0,4.0,72,0.00,,SKC,0.79,VWS V14.01,2013-04-20 03:10:00,
2013-04-19 23:15:00,47.9,36.7,29.83,West,272,7.0,11.0,65,0.00,,SKC,0.79,VWS V14.01,2013-04-20 03:15:00,
2013-04-19 23:20:00,48.0,36.4,29.83,West,268,7.0,14.0,64,0.00,,SKC,0.79,VWS V14.01,2013-04-20 03:20:00,
2013-04-19 23:25:00,48.2,36.6,29.83,West,278,0.0,20.0,64,0.00,,SKC,0.79,VWS V14.01,2013-04-20 03:25:00,
2013-04-19 23:30:00,48.0,35.6,29.84,North,352,1.0,11.0,62,0.00,,SKC,0.79,VWS V14.01,2013-04-20 03:30:00,
2013-04-19 23:35:00,47.9,35.5,29.84,WNW,300,3.0,10.0,62,0.00,,SKC,0.79,VWS V14.01,2013-04-20 03:35:00,
2013-04-19 23:40:00,47.6,35.6,29.84,West,279,2.0,11.0,63,0.00,,SKC,0.79,VWS V14.01,2013-04-20 03:40:00,
2013-04-19 23:45:00,47.6,35.2,29.84,West,276,6.0,13.0,62,0.00,,SKC,0.79,VWS V14.01,2013-04-20 03:45:00,
2013-04-19 23:50:00,47.4,35.0,29.84,WNW,296,3.0,15.0,62,0.00,,SKC,0.79,VWS V14.01,2013-04-20 03:50:00,
2013-04-19 23:55:00,47.3,35.0,29.84,West,278,5.0,10.0,62,0.00,,SKC,0.79,VWS V14.01,2013-04-20 03:55:00,